Flag for Germany Weather past 2 weeks in Achim, Lower Saxony, Germany

Now
37 °F

Broken clouds.


Feels Like: 28 °F
Forecast: 31 / 35 °F
Wind: 17 mph from Southwest

Location: Bremen Airport

Current Time: Jan 29, 2015 at 4:11:27 PM

Latest Report: Jan 29, 2015 at 3:20 PM


Visibility: N/A

Pressure: 28.94 "Hg

Humidity: 81%

Dew point: 32 °F

Location of AchimLocation

Historic Weather in Achim — Graph

°F

Achim temperature yesterday

Maximum temperature yesterday: 43 °F (at 1:20 PM)
Minimum temperature yesterday: 36 °F (at 9:50 PM)
Average temperature yesterday: 40 °F

Past Weeks' High & Low Weather Summary

 TemperatureHumidityPressure
High50 °F (Jan 15, 12:50 PM)100% (Jan 14, 5:20 PM)30.33 "Hg (Jan 14, 5:20 PM)
Low21 °F (Jan 21, 7:20 AM)70% (Jan 17, 12:50 PM)28.94 "Hg (Jan 29, 2:50 PM)
Average35 °F91%29.90 "Hg
* Reported Jan 14 2:20 PM — Jan 29 2:50 PM, Achim, Weather by CustomWeather, © 2014

Note: Actual official high and low records may vary slightly from our data, if they occured in-between our weather recording intervals... More about our weather records

Advertising

Achim weather history for previous 24 hours

 ConditionsComfort  
Time TempWeatherWind HumidityBarometerVisibility
2:50 PM
Jan 29
37 °FBroken clouds.18 mph81%28.94 "HgN/A
2:20 PM37 °FBroken clouds.20 mph81%28.97 "HgN/A
1:50 PM37 °FBroken clouds.20 mph81%28.97 "HgN/A
1:20 PM37 °FBroken clouds.20 mph81%29.00 "HgN/A
12:50 PM37 °FBroken clouds.20 mph81%29.00 "HgN/A
12:20 PM37 °FPartly sunny.18 mph81%29.03 "HgN/A
11:50 AM37 °FPartly sunny.20 mph81%29.06 "HgN/A
11:20 AM36 °FBroken clouds.18 mph93%29.06 "HgN/A
10:50 AM36 °FScattered clouds.18 mph87%29.06 "HgN/A
10:20 AM34 °FScattered clouds.16 mph100%29.09 "HgN/A
9:50 AM34 °FSnow flurries. Broken clouds.17 mph100%29.09 "Hg2 mi
9:20 AM34 °FScattered clouds.17 mph100%29.09 "HgN/A
8:50 AM34 °FScattered clouds.18 mph100%29.12 "HgN/A
8:20 AM32 °FSnow showers. Partly sunny.17 mph100%29.12 "Hg1 mi
7:50 AM36 °FPassing clouds.17 mph87%29.12 "HgN/A
7:20 AM34 °FSnow showers. Passing clouds.22 mph93%29.15 "Hg2 mi
6:50 AM36 °FPassing clouds.22 mph81%29.12 "HgN/A
6:20 AM36 °FPassing clouds.20 mph81%29.15 "HgN/A
5:50 AM36 °FPassing clouds.18 mph81%29.15 "HgN/A
5:20 AM36 °FPassing clouds.20 mph81%29.18 "HgN/A
4:50 AM36 °FPassing clouds.16 mph81%29.18 "HgN/A
4:20 AM36 °FPassing clouds.17 mph81%29.21 "HgN/A
3:50 AM36 °FPassing clouds.16 mph87%29.21 "HgN/A
3:20 AM36 °FPassing clouds.17 mph81%29.21 "HgN/A
2:50 AM36 °FPassing clouds.15 mph87%29.24 "HgN/A
2:20 AM36 °FSprinkles. Passing clouds.16 mph87%29.24 "HgN/A
1:50 AM36 °FPassing clouds.16 mph87%29.24 "HgN/A
1:20 AM36 °FPartly cloudy.28 mph87%29.24 "HgN/A
12:50 AM36 °FPassing clouds.20 mph93%29.24 "HgN/A
12:20 AM36 °FSprinkles. Passing clouds.22 mph93%29.24 "HgN/A
11:50 PM
Jan 28
37 °FSprinkles. Passing clouds.20 mph87%29.24 "HgN/A
11:20 PM36 °FSprinkles. Passing clouds.23 mph93%29.24 "HgN/A
10:20 PM36 °FPassing clouds.20 mph87%29.24 "HgN/A
9:50 PM36 °FPassing clouds.18 mph87%29.24 "HgN/A
9:20 PM37 °FPassing clouds.18 mph87%29.24 "HgN/A
8:50 PM37 °FPartly cloudy.20 mph87%29.24 "HgN/A
8:20 PM37 °FSprinkles. Passing clouds.24 mph93%29.24 "HgN/A
7:50 PM37 °FPassing clouds.16 mph93%29.24 "HgN/A
7:20 PM39 °FPassing clouds.18 mph93%29.24 "HgN/A
6:50 PM41 °FPassing clouds.23 mph87%29.24 "HgN/A
6:20 PM41 °FPassing clouds.21 mph87%29.24 "Hg4 mi
5:50 PM41 °FRain. Passing clouds.22 mph87%29.24 "HgN/A
5:20 PM39 °FRain. Passing clouds.22 mph93%29.27 "Hg4 mi
4:50 PM41 °FRain. Partly sunny.21 mph87%29.30 "Hg3 mi
4:20 PM41 °FLight rain. Partly sunny.22 mph87%29.33 "Hg3 mi
Weather by CustomWeather, © 2014

See weather overviewHow to use our weather pages